Orbital Elements at Epoch 2459200.5 (2020-Dec-17.0) TDB
Reference: JPL 16 (heliocentric ecliptic J2000)
Element | Value | Uncertainty (1-sigma) | Units |
e | .1852717185457677 | 3.8168e-08 | |
a | 2.376604312538892 | 9.6882e-09 | au |
q | 1.936286747251529 | 9.3626e-08 | au |
i | 2.387554034022947 | 4.1283e-06 | deg |
node | 322.7212151763233 | 8.8652e-05 | deg |
peri | 55.25297553075439 | 8.9414e-05 | deg |
M | 281.4884437308513 | 1.4238e-05 | deg |
tp | 2459492.353451350136 (2021-Oct-04.85345135) | 5.4209e-05 | TDB |
period | 1338.239202976232 3.66 | 8.183e-06 2.24e-08 | d yr |
n | .2690102032576562 | 1.6449e-09 | deg/d |
Q | 2.816921877826256 | 1.1483e-08 | au |
|
| | Orbit Determination Parameters
Additional Information
|